Location: Unspecified
(0.0000°N, 0.0000°E)
Time: 11:22:59
(UTC+00:00)

Courier 1B - Pass Details

Date: 28 November 2019
Orbit: 963 x 1209 km, 28.3° (Epoch: 07 December)

Event Time Altitude Azimuth Distance (km) Brightness Sun altitude
Rises 21:02:35 0° 232° (SW) 3,977 11.5 -44.3°
Reaches altitude 10° 21:05:23 10° 228° (SW) 3,048 10.6 -45.0°
Enters shadow 21:08:37 27° 218° (SW) 2,062 9.5 -45.6°
Maximum altitude 21:12:51 58° 150° (SSE) 1,361 - -46.5°
Drops below altitude 10° 21:20:32 10° 72° (ENE) 3,138 - -48.2°
Sets 21:23:28 0° 68° (ENE) 4,102 - -48.8°
